Airport Information

KCVO - Corvallis Muni Airport

KCVO 251056Z AUTO 00000KT 10SM FEW120 06/05 A2997 RMK AO2 SLP148 T00560050


  • General Information

  • Coordinates: N 44°30'24"/ W 123°17'29"
  • Location: N/A
  • Surveyed Elevation: 250 MSL

Operations

Flow Name Active Runways Conditions

Green background denotes normal operations.


Common Frequencies

Callsign Frequency Position Name

More at the Document Center


Charts